Terug naar catalogus

COSMOS 2200

ActiefMilitairPO
NORAD 22037·PAYLOAD·🇷🇺 Russia

Gelanceerd Jul 13, 1992 vanaf Plesetsk Cosmodrome

Loading…

Volgende Passages (komende 24 uur)

TLE

VersSource: Space-Track

Epoch: Sep 14, 2026, 04:34 UTC

1 22037U 92042D   26257.19050990  .00000038  00000-0  14869-3 0  9998
2 22037  82.5921 178.7394 0009155 102.5026  59.7584 12.63328362575447

Volg COSMOS 2200 in realtime met AllMySat

Download on the App Store